SL-12 R/B(2), 18578

Orbit data source: Space-Track

SL-12 R/B(2), 18578 is space debris in GEO originally from a launch on Thu, 26 Nov 1987 UTC launched from the Tyuratam Missile And Space Complex (TTMTR). Debris objects in space refer to the collection of defunct objects orbiting the Earth. Examples of debris include non-operational satellites, rocket bodies, and fragments generated from explosions, collisions, or faulty payload assembly.

Not visible in the next 10 days
Identifier
18578, 1987-096D
Orbit
GEO
Country
Flag of CISCIS
Related business
Manufacturer
NPO Energiya
Mission
Spacecraft
Bus & Motor
BLOK DM, Unknown motor
Mass
2,440 kg wet, 2,440 kg dry
Launch date (UTC)
1987-11-26 (38 years ago)
Launch vehicle
Unknown
Launch site
Tyuratam Missile And Space Complex (TTMTR)
Object type
Payload
Rocket body
Debris
Shape & HBR
Cyl, 3.1 m
Radar Cross Section
23.597 m², Large (>1 m²)

Expand to show TLE details & history
Last TLE update: 7 hours ago

TLE from 7 hours ago
0 SL-12 R/B(2)
1 18578U 87096D   25290.93825068 -.00000302  00000-0  00000-0 0  9994
2 18578  11.1579 327.7375 0024200 241.2004 290.2762  1.00560847135592
Epoch: 2025-10-17T22:31Z
TLE epoch observation values (Epoch: 2025-10-17T22:31:04.858Z)
Latitude
1.67997°
Longitude
134.67826°
Altitude
35,669.661 km
Speed
3.08 km/s
True Right ascension
09h 16m 29s
True Declination
1° 40' 42"
Sunlit
Object was in daylight at epoch
Visualization orbit readout
Latitude
Unknown
Longitude
Unknown
Altitude
Unknown
Speed
Unknown
Apparent Right ascension
Unknown
Apparent Declination
Unknown
Sunlit
N/A
Visualization observer readout
Local Sidereal Time
00:34:15
Azimuth
Unknown
Elevation
Unknown
Doppler factor
Unknown
Orbital elements
Apogee altitude
35,808.614 km
Perigee altitude
35,604.923 km
Semi-major axis
42,084.905 km
Eccentricity
0.00242
Inclination
11.1579°
RAAN
327.7375°
Arg. of periapsis
241.2004°
True anomaly
290.0158°
Mean anomaly
290.2762°
Eccentric anomaly
290.14603°
Mean motion
0.25139 °/min
Orbital period
1,432.02 mins
BSTAR
0
Loading maneuver chart data...
Computing Atmospheric mass density...
Loading historical data...
Loading historical data...
Loading historical data...
Loading historical data...
Loading historical data...
Loading historical data...
Loading historical data...

Documentation

Showing up to 5 results
|